FW5135 Weather Reports


time (UTC)temp
C
wind
direction
speed
KPH
gust
KPH
rain 1hr
cm
rain 24hr
cm
rain mn
cm
humidity
%
barometer
mb
20260510204506 24 238 4.8 16.1 0.00 0.00 0.00 52 1011.8
20260510204007 24 240 4.8 14.5 0.00 0.00 0.00 53 1011.7
20260510203507 25 240 4.8 14.5 0.00 0.00 0.00 50 1011.7
20260510203005 25 230 4.8 11.3 0.00 0.00 0.00 48 1011.5
20260510201506 26 234 4.8 11.3 0.00 0.00 0.00 47 1011.7
20260510201005 26 235 4.8 11.3 0.00 0.00 0.00 46 1011.9
20260510200007 25 255 4.8 12.9 0.00 0.00 0.00 48 1012.0
20260510195506 25 270 3.2 12.9 0.00 0.00 0.00 49 1012.1
20260510195007 25 243 1.6 9.7 0.00 0.00 0.00 50 1012.1
20260510194506 24 217 3.2 9.7 0.00 0.00 0.00 49 1012.1
20260510194007 24 202 3.2 9.7 0.00 0.00 0.00 50 1012.1
20260510193506 24 222 1.6 9.7 0.00 0.00 0.00 50 1012.2
20260510192506 25 220 1.6 11.3 0.00 0.00 0.00 50 1012.3
20260510192007 24 277 0.0 1.6 0.00 0.00 0.00 51 1012.2
20260510191506 24 313 0.0 3.2 0.00 0.00 0.00 51 1012.4
20260510191005 24 290 1.6 4.8 0.00 0.00 0.00 49 1012.3
20260510190505 24 265 1.6 4.8 0.00 0.00 0.00 49 1012.3
20260510190006 24 268 1.6 4.8 0.00 0.00 0.00 51 1012.4
20260510185505 24 269 1.6 9.7 0.00 0.03 0.00 50 1012.5
20260510185005 24 256 3.2 12.9 0.00 0.03 0.00 50 1012.5
20260510184505 24 249 4.8 12.9 0.00 0.03 0.00 49 1012.4
20260510184006 24 247 4.8 14.5 0.00 0.03 0.00 48 1012.4
20260510183505 24 241 8.0 17.7 0.00 0.03 0.00 46 1012.3
20260510183006 25 239 9.7 17.7 0.00 0.03 0.00 45 1012.2
20260510182507 25 229 8.0 14.5 0.00 0.03 0.00 44 1012.3
20260510182005 26 217 8.0 14.5 0.00 0.03 0.00 45 1012.3
20260510181506 26 231 4.8 14.5 0.00 0.03 0.00 44 1012.2
20260510180005 26 241 6.4 19.3 0.00 0.03 0.00 44 1012.2
20260510175506 26 245 4.8 12.9 0.00 0.03 0.00 48 1012.3
20260510175006 25 235 6.4 17.7 0.00 0.03 0.00 48 1012.4
20260510174507 25 215 8.0 17.7 0.00 0.03 0.00 45 1012.4
20260510174006 25 200 6.4 16.1 0.00 0.03 0.00 46 1012.3
20260510173506 25 226 4.8 12.9 0.00 0.03 0.00 49 1012.4
20260510173006 25 272 3.2 11.3 0.00 0.03 0.00 47 1012.4
20260510172506 25 280 3.2 12.9 0.00 0.03 0.00 49 1012.4
20260510172006 25 260 4.8 12.9 0.00 0.03 0.00 48 1012.5
20260510171506 25 241 4.8 12.9 0.00 0.03 0.00 48 1012.5
20260510171005 24 233 4.8 12.9 0.00 0.03 0.00 53 1012.6
20260510170506 24 243 4.8 12.9 0.00 0.03 0.00 51 1012.6
20260510165506 24 242 1.6 8.0 0.00 0.03 0.00 56 1012.6
20260510164005 23 297 3.2 6.4 0.00 0.03 0.00 57 1012.8
20260510163506 23 281 3.2 11.3 0.00 0.03 0.00 59 1012.9
20260510163005 23 284 3.2 11.3 0.00 0.03 0.00 59 1012.9
20260510162506 22 263 3.2 9.7 0.00 0.03 0.00 62 1012.7
20260510162006 22 272 3.2 9.7 0.00 0.03 0.00 60 1012.7
20260510161505 22 303 1.6 6.4 0.00 0.03 0.00 58 1012.7
20260510161006 22 262 3.2 11.3 0.00 0.03 0.00 61 1012.8
20260510160506 22 252 3.2 11.3 0.00 0.03 0.00 62 1012.9
20260510160006 22 241 3.2 9.7 0.00 0.03 0.00 62 1012.9
20260510155505 21 274 3.2 9.7 0.00 0.03 0.00 61 1012.9
20260510155006 21 287 3.2 9.7 0.00 0.03 0.00 63 1013.0
20260510154506 21 284 3.2 9.7 0.00 0.03 0.00 68 1013.1
20260510153506 20 312 3.2 9.7 0.00 0.03 0.00 66 1013.2
20260510153006 20 295 1.6 9.7 0.00 0.03 0.00 68 1013.2
20260510152506 20 304 1.6 6.4 0.00 0.03 0.00 69 1013.2
20260510152006 20 321 3.2 6.4 0.00 0.03 0.00 69 1013.2
20260510151506 20 319 3.2 8.0 0.00 0.03 0.00 69 1013.2
20260510151005 20 329 1.6 8.0 0.00 0.03 0.00 70 1013.3
20260510150506 19 338 1.6 6.4 0.00 0.03 0.00 71 1013.3
20260510150005 19 315 1.6 4.8 0.00 0.03 0.00 73 1013.3
20260510145506 18 296 1.6 4.8 0.00 0.03 0.00 72 1013.2
20260510145006 18 287 1.6 4.8 0.00 0.03 0.00 74 1013.2
20260510144506 18 323 1.6 4.8 0.00 0.03 0.00 73 1013.2
20260510144007 18 334 1.6 4.8 0.00 0.03 0.00 73 1013.2
20260510143006 17 234 0.0 8.0 0.00 0.03 0.00 77 1013.3
20260510142006 17 183 1.6 4.8 0.00 0.03 0.00 80 1013.3
20260510141006 16 192 1.6 4.8 0.00 0.03 0.00 80 1013.4
20260510140506 16 263 1.6 6.4 0.00 0.03 0.00 81 1013.4
20260510140006 16 265 1.6 6.4 0.00 0.03 0.00 83 1013.5
20260510135506 15 288 1.6 6.4 0.00 0.03 0.00 82 1013.3
20260510134506 15 212 3.2 8.0 0.00 0.03 0.00 86 1013.3
20260510134006 14 172 1.6 6.4 0.00 0.03 0.00 85 1013.3
20260510133506 14 88 0.0 4.8 0.00 0.03 0.00 87 1013.2
20260510133006 14 79 0.0 4.8 0.00 0.03 0.00 89 1013.2
20260510132506 13 0 0.0 0.0 0.00 0.03 0.00 90 1013.4
20260510132006 13 0 0.0 0.0 0.00 0.03 0.00 90 1013.4
20260510131505 13 0 0.0 0.0 0.00 0.03 0.00 91 1013.4
20260510131007 13 0 0.0 0.0 0.00 0.03 0.00 92 1013.5
20260510130506 12 0 0.0 0.0 0.00 0.03 0.00 92 1013.6
20260510130006 12 0 0.0 0.0 0.00 0.03 0.00 92 1013.5
20260510125506 12 79 0.0 1.6 0.00 0.03 0.00 92 1013.3
20260510125006 12 78 0.0 3.2 0.00 0.03 0.00 92 1013.2
20260510124506 12 78 0.0 3.2 0.00 0.03 0.00 92 1013.1
20260510124006 12 79 0.0 1.6 0.00 0.03 0.00 92 1013.0
20260510123506 11 75 0.0 3.2 0.00 0.03 0.00 92 1013.1
20260510123006 11 51 1.6 6.4 0.00 0.03 0.00 92 1013.1
20260510122506 11 31 1.6 6.4 0.00 0.03 0.00 92 1012.9
20260510122005 11 20 0.0 6.4 0.00 0.03 0.00 92 1013.0
20260510121505 11 0 0.0 0.0 0.00 0.03 0.00 92 1013.2
20260510121007 11 0 0.0 0.0 0.00 0.03 0.00 92 1013.0
20260510120007 11 0 0.0 0.0 0.00 0.03 0.00 92 1012.7
20260510115505 11 32 0.0 1.6 0.00 0.03 0.00 92 1012.8
20260510115006 11 41 1.6 4.8 0.00 0.03 0.00 92 1012.7
20260510114506 11 42 1.6 4.8 0.00 0.03 0.00 92 1012.7
20260510114006 11 0 0.0 0.0 0.00 0.03 0.00 92 1012.8
20260510113505 11 0 0.0 0.0 0.00 0.03 0.00 92 1012.9
20260510113006 11 0 0.0 0.0 0.00 0.03 0.00 92 1012.8
20260510112507 11 28 0.0 3.2 0.00 0.03 0.00 92 1012.6
20260510111506 11 29 3.2 9.7 0.00 0.03 0.00 92 1012.4
20260510111007 11 30 3.2 4.8 0.00 0.03 0.00 92 1012.3
20260510110506 11 24 1.6 4.8 0.00 0.03 0.00 92 1012.2
20260510110007 10 16 1.6 4.8 0.00 0.03 0.00 92 1012.2
20260510105507 10 18 1.6 4.8 0.00 0.03 0.00 92 1012.3
20260510105005 10 28 1.6 4.8 0.00 0.03 0.00 92 1012.3
20260510104506 10 36 1.6 4.8 0.00 0.03 0.00 92 1012.1
20260510104007 10 49 1.6 4.8 0.00 0.03 0.00 92 1012.0
20260510103506 10 64 1.6 6.4 0.00 0.03 0.00 92 1011.8
20260510102506 10 56 3.2 4.8 0.00 0.03 0.00 92 1011.9
20260510102006 10 51 3.2 8.0 0.00 0.03 0.00 92 1012.0
20260510101507 10 35 3.2 8.0 0.00 0.03 0.00 92 1011.9
20260510100506 10 17 1.6 8.0 0.00 0.03 0.00 92 1012.0
20260510095506 10 13 1.6 6.4 0.00 0.03 0.00 92 1012.1
20260510095006 10 4 1.6 4.8 0.00 0.03 0.00 92 1011.7
20260510094506 10 19 1.6 6.4 0.00 0.03 0.00 92 1011.8
20260510094006 10 11 3.2 6.4 0.00 0.03 0.00 92 1011.6
20260510093507 10 21 3.2 8.0 0.00 0.03 0.00 92 1011.8
20260510093006 10 25 4.8 12.9 0.00 0.03 0.00 92 1011.5
20260510092505 10 358 4.8 12.9 0.00 0.03 0.00 92 1012.0
20260510092006 10 344 3.2 11.3 0.00 0.03 0.00 92 1011.3
20260510091506 10 349 1.6 6.4 0.00 0.03 0.00 92 1011.5
20260510091006 10 356 1.6 4.8 0.00 0.03 0.00 92 1011.5
20260510090506 10 342 0.0 4.8 0.00 0.03 0.00 92 1011.6
20260510085506 10 106 0.0 3.2 0.00 0.03 0.00 92 1011.0
20260510085006 10 0 0.0 0.0 0.00 0.03 0.00 92 1011.0
20260510084506 10 0 0.0 0.0 0.00 0.03 0.00 92 1011.0
20260510084006 10 106 0.0 3.2 0.00 0.03 0.00 92 1011.1
20260510083507 10 106 0.0 3.2 0.00 0.03 0.00 92 1011.0
20260510083006 10 0 0.0 0.0 0.00 0.03 0.00 92 1011.0
20260510082006 10 107 0.0 1.6 0.00 0.03 0.00 92 1011.0
20260510081505 10 107 0.0 1.6 0.00 0.03 0.00 92 1011.0
20260510080506 9 0 0.0 0.0 0.00 0.03 0.00 92 1011.0
20260510080007 8 0 0.0 0.0 0.00 0.03 0.00 92 1011.1
20260510075506 8 0 0.0 0.0 0.00 0.03 0.00 92 1011.0
20260510075006 8 0 0.0 0.0 0.00 0.03 0.00 92 1010.9
20260510074506 8 0 0.0 0.0 0.00 0.03 0.00 92 1010.9
20260510074006 8 0 0.0 0.0 0.00 0.03 0.00 92 1010.8
20260510073507 8 0 0.0 0.0 0.00 0.03 0.00 92 1010.8
20260510073006 8 0 0.0 0.0 0.00 0.03 0.00 92 1010.7
20260510072506 8 0 0.0 0.0 0.00 0.03 0.00 92 1010.6
20260510072006 8 0 0.0 0.0 0.00 0.03 0.00 92 1010.5
20260510071506 8 0 0.0 0.0 0.00 0.03 0.00 92 1010.4
20260510070507 8 0 0.0 0.0 0.00 0.03 0.00 91 1010.3
20260510070006 8 0 0.0 0.0 0.00 0.03 0.00 91 1010.3
20260510065506 8 0 0.0 0.0 0.00 0.03 0.00 91 1010.4
20260510065006 8 0 0.0 0.0 0.00 0.03 0.00 91 1010.4
20260510064506 8 0 0.0 0.0 0.00 0.03 0.00 92 1010.4
20260510064007 8 0 0.0 0.0 0.00 0.03 0.00 92 1010.4
20260510063506 8 0 0.0 0.0 0.00 0.03 0.00 92 1010.4
20260510063008 8 0 0.0 0.0 0.00 0.03 0.00 92 1010.4
20260510062507 8 0 0.0 0.0 0.00 0.03 0.00 91 1010.4
20260510061506 8 0 0.0 0.0 0.00 0.03 0.00 91 1010.5
20260510061006 8 0 0.0 0.0 0.00 0.03 0.00 91 1010.4
20260510060506 8 0 0.0 0.0 0.00 0.03 0.00 91 1010.4
20260510060007 8 0 0.0 0.0 0.00 0.03 0.00 91 1010.5
20260510055505 8 0 0.0 0.0 0.00 0.03 0.00 91 1010.5
20260510055006 8 0 0.0 0.0 0.00 0.03 0.00 91 1010.6
20260510054506 8 0 0.0 0.0 0.00 0.03 0.00 91 1010.7
20260510054007 8 0 0.0 0.0 0.00 0.03 0.00 91 1010.7
20260510053505 8 0 0.0 0.0 0.00 0.03 0.00 91 1010.7
20260510053006 8 0 0.0 0.0 0.00 0.03 0.00 91 1010.7
20260510052506 8 0 0.0 0.0 0.00 0.03 0.00 91 1010.7
20260510052007 8 0 0.0 0.0 0.00 0.03 0.00 91 1010.7
20260510051506 8 0 0.0 0.0 0.00 0.03 0.00 91 1010.8
20260510051006 8 0 0.0 0.0 0.00 0.03 0.00 91 1010.9
20260510050507 8 0 0.0 0.0 0.00 0.03 0.00 91 1010.9
20260510050001 8 0 0.0 0.0 0.00 0.03 0.00 91 1010.9
20260510044002 9 0 0.0 0.0 0.00 0.03 0.00 91 1011.1
20260510043502 9 0 0.0 0.0 0.00 0.03 0.00 91 1011.0
20260510043001 9 0 0.0 0.0 0.00 0.03 0.00 91 1011.1
20260510042501 9 0 0.0 0.0 0.00 0.03 0.00 91 1011.1
20260510042000 9 0 0.0 0.0 0.00 0.03 0.00 91 1011.1
20260510041500 9 0 0.0 0.0 0.00 0.03 0.00 91 1011.1
20260510040501 9 0 0.0 0.0 0.00 0.03 0.00 91 1011.1
20260510040006 9 0 0.0 0.0 0.00 0.03 0.00 91 1011.2
20260510035502 9 0 0.0 0.0 0.00 0.03 0.03 91 1011.2
20260510035001 10 0 0.0 0.0 0.00 0.03 0.03 91 1011.1
20260510034001 10 0 0.0 0.0 0.00 0.03 0.03 91 1010.9
20260510033500 10 0 0.0 0.0 0.00 0.03 0.03 91 1010.8
20260510033001 10 0 0.0 0.0 0.00 0.03 0.03 90 1010.7
20260510032501 10 0 0.0 0.0 0.00 0.03 0.03 91 1010.7
20260510032000 10 0 0.0 0.0 0.00 0.03 0.03 91 1010.6
20260510031501 10 0 0.0 0.0 0.00 0.03 0.03 91 1010.7
20260510031001 10 0 0.0 0.0 0.00 0.03 0.03 91 1010.6
20260510030503 10 0 0.0 0.0 0.00 0.03 0.03 90 1010.5
20260510025500 10 0 0.0 0.0 0.00 0.03 0.03 90 1010.6
20260510025001 10 0 0.0 0.0 0.00 0.03 0.03 90 1010.6
20260510024501 10 0 0.0 0.0 0.00 0.03 0.03 90 1010.7
20260510023001 10 0 0.0 0.0 0.00 0.03 0.03 90 1010.6
20260510022502 10 0 0.0 0.0 0.00 0.03 0.03 90 1010.6
20260510022001 10 0 0.0 0.0 0.00 0.03 0.03 90 1010.6
20260510021500 10 0 0.0 0.0 0.00 0.03 0.03 90 1010.5
20260510021002 10 0 0.0 0.0 0.00 0.03 0.03 90 1010.4
20260510020501 10 0 0.0 0.0 0.00 0.03 0.03 90 1010.4
20260510020001 11 0 0.0 0.0 0.00 0.03 0.03 90 1010.4
20260510015001 11 0 0.0 0.0 0.00 0.03 0.03 90 1010.3
20260510014501 11 0 0.0 0.0 0.00 0.03 0.03 89 1010.4
20260510014000 11 0 0.0 0.0 0.00 0.03 0.03 89 1010.4
20260510013502 11 0 0.0 0.0 0.00 0.03 0.03 89 1010.5
20260510013001 11 0 0.0 0.0 0.00 0.03 0.03 89 1010.5
20260510012501 11 0 0.0 0.0 0.00 0.03 0.03 89 1010.4
20260510011501 11 0 0.0 0.0 0.00 0.03 0.03 89 1010.4
20260510011001 11 0 0.0 0.0 0.00 0.03 0.03 88 1010.3
20260510010501 11 0 0.0 0.0 0.00 0.03 0.03 88 1010.1
20260510010002 12 0 0.0 0.0 0.00 0.03 0.03 88 1010.2
20260510005503 12 0 0.0 0.0 0.00 0.03 0.03 88 1010.1
20260510005001 12 0 0.0 0.0 0.00 0.03 0.03 88 1010.1
20260510004501 12 0 0.0 0.0 0.00 0.03 0.03 87 1010.1
20260510004001 12 0 0.0 0.0 0.00 0.03 0.03 87 1010.1
20260510003501 12 0 0.0 0.0 0.00 0.03 0.03 87 1010.2
20260510003001 12 0 0.0 0.0 0.00 0.03 0.03 86 1010.2
20260510002502 12 0 0.0 0.0 0.00 0.03 0.03 86 1010.1
20260510002001 12 0 0.0 0.0 0.00 0.03 0.03 85 1010.1
20260510001501 13 0 0.0 0.0 0.00 0.03 0.03 85 1010.0
20260510000501 13 0 0.0 0.0 0.00 0.03 0.03 84 1010.0
20260509235501 13 0 0.0 0.0 0.00 0.03 0.03 82 1010.1
20260509234001 14 61 1.6 4.8 0.00 0.03 0.03 79 1010.0
20260509233001 15 56 3.2 8.0 0.00 0.03 0.03 79 1009.9
20260509232500 15 65 3.2 8.0 0.00 0.03 0.03 79 1009.8
20260509232001 15 97 1.6 8.0 0.00 0.03 0.03 79 1009.6
20260509231501 15 99 3.2 8.0 0.00 0.03 0.03 79 1009.6
20260509231002 15 91 3.2 8.0 0.00 0.03 0.03 79 1009.5
20260509230502 15 90 3.2 8.0 0.00 0.03 0.03 80 1009.5
20260509230001 15 94 1.6 8.0 0.00 0.03 0.03 81 1009.6
20260509225501 15 72 3.2 8.0 0.00 0.03 0.03 80 1009.7
20260509225001 15 53 3.2 8.0 0.00 0.03 0.03 80 1009.7
20260509224501 15 44 3.2 8.0 0.00 0.03 0.03 80 1009.9
20260509224002 15 37 3.2 8.0 0.00 0.03 0.03 79 1009.9
20260509223002 15 37 4.8 12.9 0.00 0.03 0.03 79 1009.9
20260509222501 15 40 3.2 11.3 0.00 0.03 0.03 80 1010.0
20260509222001 15 51 4.8 11.3 0.00 0.03 0.03 79 1009.9
20260509221003 15 68 3.2 8.0 0.00 0.03 0.03 79 1009.9
20260509220502 15 57 3.2 8.0 0.00 0.03 0.03 79 1010.1
20260509215501 15 31 1.6 8.0 0.00 0.03 0.03 78 1010.3
20260509215001 15 23 3.2 12.9 0.00 0.03 0.03 77 1010.2
20260509214501 15 27 3.2 12.9 0.00 0.03 0.03 77 1010.3
20260509214001 15 32 4.8 16.1 0.00 0.03 0.03 76 1010.2
20260509213502 15 22 4.8 16.1 0.00 0.03 0.03 75 1010.2
20260509213001 15 357 4.8 11.3 0.00 0.03 0.03 73 1010.4
20260509212501 16 7 4.8 11.3 0.00 0.03 0.03 72 1010.7
20260509212001 16 27 3.2 12.9 0.00 0.03 0.03 72 1010.6
20260509211501 16 25 3.2 12.9 0.00 0.03 0.03 71 1010.4
20260509211001 16 12 3.2 11.3 0.00 0.03 0.03 70 1010.3
20260509210500 16 18 3.2 11.3 0.00 0.03 0.03 70 1010.2
20260509205501 16 358 3.2 12.9 0.00 0.03 0.03 68 1010.1
20260509205003 16 2 3.2 9.7 0.00 0.03 0.03 68 1010.2